Rbgn^[z[y[W
メイン
   新天体発見情報
     Comet C/2020 F2 (ATLAS)
投稿するにはまず登録を

スレッド表示 | 新しいものから 前のトピック | 次のトピック | 下へ
投稿者 スレッド
佐藤裕久
投稿日時: 2020-5-5 14:25
モデレータ
登録日: 2005-6-12
居住地: 日本
投稿: 2063
オンライン
Comet C/2020 F2 (ATLAS)

3月21日、この天体は当初、L. Denneauによってどのような彗星活動の言及もない地球近傍
天体の候補として通報された。翌日、この天体は2".2のコマとp.a.280°に向かって伸びる
4"の尾が表示され、Pan-STARRS (F51)によって検出された。
発見前の画像がR. Weryk (F51)によって見つけられた。
小惑星センターのPCCP webpageに公表後、佐藤英貴氏(東京都文京区, iTelescope天文台, 
3月27.7日UT、60秒露出8枚のスタック, 0.51-m f/6.8 アストログラフ, Siding Spring, NSW, 
遠隔操作:強く集光した8" のコマがあるが尾はない。4".9の円形範囲で測定した光度は15.9等
であった)らによって彗星状と観測された。

彗星機能の追加報告は次の通り:

OC   Date        Reporter           Coma    Tail    PA          Exposures
F51  2019-05-27  R. Weryk            2"      3"     290
F51  2020-02-05  R. Weryk            2"      3"     290
Q11  2020-03-23  H. Sato             5"                         17x90s
Q11  2020-03-24  H. Sato             7"                         30x60s
F65  2020-03-26  P. Breitenstein     4"                         8x80s
Q62  2020-03-27  H. Sato             8"                         8x60s

発見位置は次のとおり、

     2020 UT             R.A. (2000) Decl.       Mag.   Observer
     Mar. 21.62221   16 29 00.75   -19 39 37.3   19.3   ATLAS
          21.62559   16 29 00.69   -19 39 37.7   19.1     "
          21.63373   16 29 00.48   -19 39 36.6   19.4     "
          21.64023   16 29 00.50   -19 39 36.4   19.5     "
          22.57744   16 28 42.58   -19 38 03.1   19.3   Pan-STARRS1
          22.58959   16 28 42.33   -19 38 01.8   19.4     "
          22.60117   16 28 42.12   -19 38 00.7   19.2     "
          22.61277   16 28 41.88   -19 37 59.6   19.5     "

MPCの双曲線軌道要素と位置推算表は次のとおり、

Orbital elements:
    C/2020 F2 (ATLAS)                                                           
Epoch 2022 June 30.0 TT = JDT 2459760.5                                         
T 2022 July 15.86173 TT                                 Rudenko                 
q   8.8151984            (2000.0)            P               Q                  
z  -0.0006225      Peri.   48.37574     -0.89917843     -0.34744946             
 +/-0.0000059      Node   250.27242     -0.43562194     +0.76824300             
e   1.0054872      Incl.  163.58530     +0.04137247     +0.53766306             
From 92 observations 2019 May 27-2020 Apr. 1, mean residual 0".4.               
                                                                                
    C/2020 F2 (ATLAS)                                                           
Epoch 2020 May 31.0 TT = JDT 2459000.5                                          
T 2022 July 16.96171 TT                                 Rudenko                 
q   8.8153342            (2000.0)            P               Q                  
z  -0.0002439      Peri.   48.39176     -0.89939157     -0.34678694             
 +/-0.0000059      Node   250.24901     -0.43514120     +0.76843165             
e   1.0021500      Incl.  163.57369     +0.04179646     +0.53782117             
From 92 observations 2019 May 27-2020 Apr. 1, mean residual 0".4.               
                                                                                
Ephemeris:
Date    TT    R. A. (2000) Decl.     Delta      r    Elong.  Phase   m1
2020 03 02    16 33 36.4 -20 07 35  10.0379 10.1181    91.8     5.6  19.1
...
2020 03 17    16 30 22.4 -19 46 57   9.7315 10.0772   107.6     5.4  19.0
...
2020 03 25    16 27 54.5 -19 33 57   9.5760 10.0555   116.2     5.1  18.9
...
2020 03 31    16 25 43.5 -19 23 16   9.4656 10.0394   122.6     4.8  18.9
2020 04 01    16 25 20.0 -19 21 24   9.4478 10.0367   123.7     4.8  18.9
2020 04 02    16 24 56.1 -19 19 31   9.4302 10.0340   124.8     4.7  18.9
...
2020 04 08    16 22 23.3 -19 07 46   9.3289 10.0180   131.3     4.3  18.9
...
2020 04 16    16 18 36.0 -18 50 54   9.2066  9.9967   140.1     3.7  18.8
...
2020 05 01    16 10 28.4 -18 15 55   9.0246  9.9573   156.6     2.3  18.8

(MPEC 2020-G04、CBET 4739)


スレッド表示 | 新しいものから 前のトピック | 次のトピック | トップ

投稿するにはまず登録を
 
© 1999 Tsutomu Seki.